Time,TemperatureF,DewpointF,PressureIn,WindDirection,WindDirectionDegrees,WindSpeedMPH,WindSpeedGustMPH,Humidity,HourlyPrecipIn,Conditions,Clouds,dailyrainin,SoftwareType,DateUTC
2013-09-30 00:01:00,62.2,59.8,30.03,SSE,164,0.0,10.0,92,0.01,,,0.01,WUHU216DAVISVP2,2013-09-30 04:01:00,
2013-09-30 00:03:00,62.2,59.8,30.03,SSW,199,6.0,10.0,92,0.01,,,0.00,WUHU216DAVISVP2,2013-09-30 04:03:00,
2013-09-30 00:08:00,62.1,59.7,30.03,SSE,167,0.0,8.0,92,0.01,,,0.00,WUHU216DAVISVP2,2013-09-30 04:08:00,
2013-09-30 00:13:00,62.1,60.0,30.03,SSE,167,0.0,6.0,93,0.01,,,0.00,WUHU216DAVISVP2,2013-09-30 04:13:00,
2013-09-30 00:18:00,62.1,60.0,30.03,South,180,0.0,8.0,93,0.01,,,0.00,WUHU216DAVISVP2,2013-09-30 04:18:00,
2013-09-30 00:23:00,62.0,59.9,30.03,South,178,0.0,8.0,93,0.01,,,0.00,WUHU216DAVISVP2,2013-09-30 04:23:00,
2013-09-30 00:28:00,62.0,60.2,30.03,South,178,0.0,6.0,94,0.01,,,0.00,WUHU216DAVISVP2,2013-09-30 04:28:00,
2013-09-30 00:33:00,62.0,60.2,30.03,South,185,0.0,6.0,94,0.01,,,0.00,WUHU216DAVISVP2,2013-09-30 04:33:00,
2013-09-30 00:38:00,61.9,60.1,30.03,South,190,0.0,8.0,94,0.01,,,0.00,WUHU216DAVISVP2,2013-09-30 04:38:00,
2013-09-30 00:43:00,61.9,60.1,30.03,South,190,0.0,8.0,94,0.00,,,0.00,WUHU216DAVISVP2,2013-09-30 04:43:00,
2013-09-30 00:48:00,61.8,60.0,30.03,South,170,0.0,2.0,94,0.00,,,0.00,WUHU216DAVISVP2,2013-09-30 04:48:00,
2013-09-30 00:53:00,61.8,60.0,30.03,SSW,203,0.0,8.0,94,0.00,,,0.00,WUHU216DAVISVP2,2013-09-30 04:53:00,
2013-09-30 00:58:00,61.8,60.0,30.03,South,175,4.0,8.0,94,0.00,,,0.00,WUHU216DAVISVP2,2013-09-30 04:58:00,
2013-09-30 01:05:00,61.8,60.1,30.02,SSW,192,0.0,6.0,94,0.00,,,0.00,WUHU216DAVISVP2,2013-09-30 05:05:00,
2013-09-30 01:10:00,61.9,60.1,30.03,SSW,199,0.0,8.0,94,0.00,,,0.00,WUHU216DAVISVP2,2013-09-30 05:10:00,
2013-09-30 01:14:00,62.0,60.2,30.03,SSW,198,0.0,8.0,94,0.00,,,0.00,WUHU216DAVISVP2,2013-09-30 05:14:00,
2013-09-30 01:19:00,62.0,59.9,30.02,SSW,205,0.0,6.0,93,0.00,,,0.00,WUHU216DAVISVP2,2013-09-30 05:19:00,
2013-09-30 01:24:00,62.0,59.9,30.02,SSW,192,4.0,8.0,93,0.00,,,0.00,WUHU216DAVISVP2,2013-09-30 05:24:00,
2013-09-30 01:30:00,62.1,60.0,30.02,South,171,0.0,10.0,93,0.00,,,0.00,WUHU216DAVISVP2,2013-09-30 05:30:00,
2013-09-30 01:34:00,62.1,60.0,30.02,SSW,194,0.0,10.0,93,0.00,,,0.00,WUHU216DAVISVP2,2013-09-30 05:34:00,
2013-09-30 01:40:00,62.1,60.0,30.02,South,191,0.0,6.0,93,0.00,,,0.00,WUHU216DAVISVP2,2013-09-30 05:40:00,
2013-09-30 01:45:00,62.0,59.9,30.02,South,176,0.0,6.0,93,0.00,,,0.00,WUHU216DAVISVP2,2013-09-30 05:45:00,
2013-09-30 01:50:00,62.0,59.9,30.02,SSE,158,0.0,6.0,93,0.00,,,0.00,WUHU216DAVISVP2,2013-09-30 05:50:00,
2013-09-30 01:55:00,62.0,59.9,30.02,South,179,2.0,14.0,93,0.00,,,0.00,WUHU216DAVISVP2,2013-09-30 05:55:00,
2013-09-30 02:00:00,61.9,59.8,30.02,South,180,2.0,14.0,93,0.00,,,0.00,WUHU216DAVISVP2,2013-09-30 06:00:00,
2013-09-30 02:05:00,61.9,59.8,30.02,South,179,0.0,6.0,93,0.00,,,0.00,WUHU216DAVISVP2,2013-09-30 06:05:00,
2013-09-30 02:10:00,61.9,59.8,30.02,South,180,0.0,8.0,93,0.00,,,0.00,WUHU216DAVISVP2,2013-09-30 06:10:00,
2013-09-30 02:15:00,62.0,59.9,30.01,West,263,2.0,8.0,93,0.00,,,0.00,WUHU216DAVISVP2,2013-09-30 06:15:00,
2013-09-30 02:20:00,62.0,59.9,30.01,South,174,6.0,8.0,93,0.00,,,0.00,WUHU216DAVISVP2,2013-09-30 06:20:00,
2013-09-30 02:25:00,62.0,59.9,30.02,South,183,0.0,6.0,93,0.00,,,0.00,WUHU216DAVISVP2,2013-09-30 06:25:00,
2013-09-30 02:30:00,62.0,59.9,30.01,South,169,0.0,10.0,93,0.00,,,0.00,WUHU216DAVISVP2,2013-09-30 06:30:00,
2013-09-30 02:35:00,62.0,59.9,30.02,South,186,0.0,10.0,93,0.00,,,0.00,WUHU216DAVISVP2,2013-09-30 06:35:00,
2013-09-30 02:40:00,62.0,59.9,30.02,South,186,0.0,8.0,93,0.00,,,0.00,WUHU216DAVISVP2,2013-09-30 06:40:00,
2013-09-30 02:45:00,62.0,59.9,30.02,SE,133,0.0,10.0,93,0.00,,,0.00,WUHU216DAVISVP2,2013-09-30 06:45:00,
2013-09-30 02:50:00,62.0,59.9,30.02,South,190,4.0,10.0,93,0.00,,,0.00,WUHU216DAVISVP2,2013-09-30 06:50:00,
2013-09-30 02:55:00,62.0,59.9,30.02,South,171,2.0,10.0,93,0.00,,,0.00,WUHU216DAVISVP2,2013-09-30 06:55:00,
2013-09-30 03:00:00,62.0,59.9,30.02,SSE,166,0.0,12.0,93,0.00,,,0.00,WUHU216DAVISVP2,2013-09-30 07:00:00,
2013-09-30 03:05:00,62.0,59.9,30.01,South,186,4.0,12.0,93,0.00,,,0.00,WUHU216DAVISVP2,2013-09-30 07:05:00,
2013-09-30 03:10:00,62.0,59.9,30.01,SE,141,0.0,10.0,93,0.00,,,0.00,WUHU216DAVISVP2,2013-09-30 07:10:00,
2013-09-30 03:15:00,62.0,59.9,30.01,South,188,0.0,10.0,93,0.00,,,0.00,WUHU216DAVISVP2,2013-09-30 07:15:00,
2013-09-30 03:20:00,62.0,59.9,30.01,South,184,2.0,8.0,93,0.00,,,0.00,WUHU216DAVISVP2,2013-09-30 07:20:00,
2013-09-30 03:25:00,61.9,59.8,30.01,South,178,4.0,8.0,93,0.00,,,0.00,WUHU216DAVISVP2,2013-09-30 07:25:00,
2013-09-30 03:30:00,61.9,59.8,30.01,SSW,208,0.0,8.0,93,0.00,,,0.00,WUHU216DAVISVP2,2013-09-30 07:30:00,
2013-09-30 03:35:00,61.9,59.8,30.01,South,190,0.0,8.0,93,0.00,,,0.00,WUHU216DAVISVP2,2013-09-30 07:35:00,
2013-09-30 03:40:00,61.8,59.7,30.01,South,177,0.0,8.0,93,0.00,,,0.00,WUHU216DAVISVP2,2013-09-30 07:40:00,
2013-09-30 03:45:00,61.8,59.7,30.01,SW,219,0.0,6.0,93,0.00,,,0.00,WUHU216DAVISVP2,2013-09-30 07:45:00,
2013-09-30 03:50:00,61.8,59.7,30.01,South,190,0.0,6.0,93,0.00,,,0.00,WUHU216DAVISVP2,2013-09-30 07:50:00,
2013-09-30 03:55:00,61.7,59.9,30.01,South,175,8.0,8.0,94,0.00,,,0.00,WUHU216DAVISVP2,2013-09-30 07:55:00,
2013-09-30 04:00:00,61.7,59.9,30.01,SSE,152,0.0,8.0,94,0.00,,,0.00,WUHU216DAVISVP2,2013-09-30 08:00:00,
2013-09-30 04:05:00,61.6,59.8,30.01,SW,220,0.0,10.0,94,0.00,,,0.00,WUHU216DAVISVP2,2013-09-30 08:05:00,
2013-09-30 04:10:00,61.6,59.8,30.02,WSW,242,0.0,10.0,94,0.00,,,0.00,WUHU216DAVISVP2,2013-09-30 08:10:00,
2013-09-30 04:15:00,61.6,59.8,30.02,WSW,242,0.0,6.0,94,0.01,,,0.01,WUHU216DAVISVP2,2013-09-30 08:15:00,
2013-09-30 04:20:00,61.5,60.0,30.01,South,190,0.0,2.0,95,0.01,,,0.01,WUHU216DAVISVP2,2013-09-30 08:20:00,
2013-09-30 04:25:00,61.4,59.9,30.01,SSW,202,0.0,6.0,95,0.01,,,0.01,WUHU216DAVISVP2,2013-09-30 08:25:00,
2013-09-30 04:30:00,61.4,59.9,30.01,SW,221,2.0,6.0,95,0.01,,,0.01,WUHU216DAVISVP2,2013-09-30 08:30:00,
2013-09-30 04:35:00,61.3,59.8,30.01,SW,221,0.0,6.0,95,0.01,,,0.01,WUHU216DAVISVP2,2013-09-30 08:35:00,
2013-09-30 04:40:00,61.3,59.8,30.01,SSE,154,0.0,4.0,95,0.02,,,0.02,WUHU216DAVISVP2,2013-09-30 08:40:00,
2013-09-30 04:45:00,61.3,59.8,30.01,SSE,155,2.0,4.0,95,0.02,,,0.02,WUHU216DAVISVP2,2013-09-30 08:45:00,
2013-09-30 04:50:00,61.3,59.8,30.01,South,174,2.0,4.0,95,0.02,,,0.02,WUHU216DAVISVP2,2013-09-30 08:50:00,
2013-09-30 04:55:00,61.2,59.7,30.01,South,174,0.0,4.0,95,0.03,,,0.03,WUHU216DAVISVP2,2013-09-30 08:55:00,
2013-09-30 05:00:00,61.2,59.7,30.01,SSE,167,0.0,6.0,95,0.03,,,0.03,WUHU216DAVISVP2,2013-09-30 09:00:00,
2013-09-30 05:05:00,61.2,59.7,30.01,SSW,197,0.0,10.0,95,0.03,,,0.03,WUHU216DAVISVP2,2013-09-30 09:05:00,
2013-09-30 05:10:00,61.2,60.0,30.01,SSE,154,0.0,10.0,96,0.03,,,0.03,WUHU216DAVISVP2,2013-09-30 09:10:00,
2013-09-30 05:15:00,61.2,60.0,30.01,South,184,2.0,8.0,96,0.02,,,0.03,WUHU216DAVISVP2,2013-09-30 09:15:00,
2013-09-30 05:20:00,61.1,59.9,30.01,SW,215,2.0,8.0,96,0.02,,,0.03,WUHU216DAVISVP2,2013-09-30 09:20:00,
2013-09-30 05:25:00,61.1,59.9,30.01,South,190,0.0,8.0,96,0.02,,,0.03,WUHU216DAVISVP2,2013-09-30 09:25:00,
2013-09-30 05:30:00,61.1,59.9,30.01,South,180,0.0,8.0,96,0.02,,,0.03,WUHU216DAVISVP2,2013-09-30 09:30:00,
2013-09-30 05:35:00,61.1,59.9,30.01,SSE,155,0.0,8.0,96,0.02,,,0.03,WUHU216DAVISVP2,2013-09-30 09:35:00,
2013-09-30 05:40:00,61.0,59.8,30.01,SSE,149,2.0,8.0,96,0.01,,,0.03,WUHU216DAVISVP2,2013-09-30 09:40:00,
2013-09-30 05:45:00,61.0,59.8,30.01,SSE,168,0.0,6.0,96,0.01,,,0.03,WUHU216DAVISVP2,2013-09-30 09:45:00,
2013-09-30 05:50:00,61.0,59.8,30.01,SSE,168,0.0,6.0,96,0.01,,,0.03,WUHU216DAVISVP2,2013-09-30 09:50:00,
2013-09-30 05:55:00,61.0,59.8,30.01,SW,231,0.0,8.0,96,0.00,,,0.03,WUHU216DAVISVP2,2013-09-30 09:55:00,
2013-09-30 06:00:00,61.0,59.8,30.01,South,184,0.0,8.0,96,0.00,,,0.03,WUHU216DAVISVP2,2013-09-30 10:00:00,
2013-09-30 06:05:00,61.0,59.8,30.01,South,171,4.0,8.0,96,0.00,,,0.03,WUHU216DAVISVP2,2013-09-30 10:05:00,
2013-09-30 06:10:00,61.0,59.8,30.01,South,171,0.0,6.0,96,0.00,,,0.03,WUHU216DAVISVP2,2013-09-30 10:10:00,
2013-09-30 06:15:00,61.0,59.8,30.01,SSW,202,4.0,8.0,96,0.00,,,0.03,WUHU216DAVISVP2,2013-09-30 10:15:00,
2013-09-30 06:20:00,61.0,59.8,30.01,SSW,198,2.0,8.0,96,0.00,,,0.03,WUHU216DAVISVP2,2013-09-30 10:20:00,
2013-09-30 06:25:00,61.0,59.8,30.01,SSW,198,0.0,8.0,96,0.00,,,0.03,WUHU216DAVISVP2,2013-09-30 10:25:00,
2013-09-30 06:30:00,61.0,59.8,30.02,SW,218,2.0,4.0,96,0.00,,,0.03,WUHU216DAVISVP2,2013-09-30 10:30:00,
2013-09-30 06:35:00,61.0,59.8,30.02,SW,223,0.0,8.0,96,0.00,,,0.03,WUHU216DAVISVP2,2013-09-30 10:35:00,
2013-09-30 06:40:00,60.9,59.7,30.02,SE,141,4.0,10.0,96,0.00,,,0.03,WUHU216DAVISVP2,2013-09-30 10:40:00,
2013-09-30 06:45:00,60.9,59.7,30.02,SSE,168,2.0,10.0,96,0.00,,,0.03,WUHU216DAVISVP2,2013-09-30 10:45:00,
2013-09-30 06:50:00,60.9,59.7,30.02,South,170,0.0,6.0,96,0.00,,,0.03,WUHU216DAVISVP2,2013-09-30 10:50:00,
2013-09-30 06:55:00,60.9,59.7,30.02,SW,231,0.0,6.0,96,0.00,,,0.03,WUHU216DAVISVP2,2013-09-30 10:55:00,
2013-09-30 07:00:00,60.9,59.7,30.02,SW,231,0.0,2.0,96,0.00,,,0.03,WUHU216DAVISVP2,2013-09-30 11:00:00,
2013-09-30 07:05:00,60.9,59.7,30.02,SW,228,0.0,4.0,96,0.00,,,0.03,WUHU216DAVISVP2,2013-09-30 11:05:00,
2013-09-30 07:10:00,60.9,59.7,30.02,SW,219,0.0,4.0,96,0.00,,,0.03,WUHU216DAVISVP2,2013-09-30 11:10:00,
2013-09-30 07:15:00,60.9,59.7,30.02,SW,219,2.0,4.0,96,0.00,,,0.03,WUHU216DAVISVP2,2013-09-30 11:15:00,
2013-09-30 07:20:00,60.9,59.7,30.03,South,184,0.0,6.0,96,0.00,,,0.03,WUHU216DAVISVP2,2013-09-30 11:20:00,
2013-09-30 07:25:00,60.9,59.7,30.03,South,184,0.0,6.0,96,0.00,,,0.03,WUHU216DAVISVP2,2013-09-30 11:25:00,
2013-09-30 07:30:00,60.9,59.7,30.03,SW,227,2.0,8.0,96,0.00,,,0.03,WUHU216DAVISVP2,2013-09-30 11:30:00,
2013-09-30 07:35:00,60.8,59.6,30.03,East,91,0.0,8.0,96,0.00,,,0.03,WUHU216DAVISVP2,2013-09-30 11:35:00,
2013-09-30 07:40:00,60.9,59.7,30.03,SSE,159,0.0,4.0,96,0.00,,,0.03,WUHU216DAVISVP2,2013-09-30 11:40:00,
2013-09-30 07:45:00,60.9,59.7,30.03,SSE,167,0.0,4.0,96,0.00,,,0.03,WUHU216DAVISVP2,2013-09-30 11:45:00,
2013-09-30 07:50:00,60.9,59.7,30.03,SSE,168,0.0,4.0,96,0.00,,,0.03,WUHU216DAVISVP2,2013-09-30 11:50:00,
2013-09-30 07:55:00,60.8,59.6,30.03,SSW,202,0.0,4.0,96,0.00,,,0.03,WUHU216DAVISVP2,2013-09-30 11:55:00,
2013-09-30 08:00:00,60.8,59.6,30.03,West,259,0.0,4.0,96,0.00,,,0.03,WUHU216DAVISVP2,2013-09-30 12:00:00,
2013-09-30 08:05:00,60.9,59.7,30.03,SSW,202,0.0,4.0,96,0.00,,,0.03,WUHU216DAVISVP2,2013-09-30 12:05:00,
2013-09-30 08:10:00,60.9,59.7,30.03,South,191,0.0,4.0,96,0.00,,,0.03,WUHU216DAVISVP2,2013-09-30 12:10:00,
2013-09-30 08:15:00,60.9,59.7,30.03,South,190,0.0,4.0,96,0.00,,,0.03,WUHU216DAVISVP2,2013-09-30 12:15:00,
2013-09-30 08:20:00,60.9,59.7,30.04,South,180,0.0,6.0,96,0.00,,,0.03,WUHU216DAVISVP2,2013-09-30 12:20:00,
2013-09-30 08:25:00,61.0,59.8,30.04,South,184,0.0,6.0,96,0.00,,,0.03,WUHU216DAVISVP2,2013-09-30 12:25:00,
2013-09-30 08:30:00,61.0,59.8,30.04,WSW,248,0.0,6.0,96,0.00,,,0.03,WUHU216DAVISVP2,2013-09-30 12:30:00,
2013-09-30 08:35:00,61.0,59.8,30.04,WSW,240,0.0,6.0,96,0.00,,,0.03,WUHU216DAVISVP2,2013-09-30 12:35:00,
2013-09-30 08:40:00,61.0,59.8,30.04,SSW,198,0.0,6.0,96,0.00,,,0.03,WUHU216DAVISVP2,2013-09-30 12:40:00,
2013-09-30 08:45:00,61.0,59.8,30.04,WSW,240,0.0,6.0,96,0.00,,,0.03,WUHU216DAVISVP2,2013-09-30 12:45:00,
2013-09-30 08:50:00,61.0,59.8,30.04,WNW,293,4.0,4.0,96,0.00,,,0.03,WUHU216DAVISVP2,2013-09-30 12:50:00,
2013-09-30 08:55:00,61.0,59.8,30.04,South,184,0.0,10.0,96,0.00,,,0.03,WUHU216DAVISVP2,2013-09-30 12:55:00,
2013-09-30 09:00:00,61.1,59.9,30.04,South,184,0.0,10.0,96,0.00,,,0.03,WUHU216DAVISVP2,2013-09-30 13:00:00,
2013-09-30 09:05:00,61.1,59.9,30.04,South,190,0.0,2.0,96,0.00,,,0.03,WUHU216DAVISVP2,2013-09-30 13:05:00,
2013-09-30 09:10:00,61.1,59.9,30.04,South,190,0.0,2.0,96,0.00,,,0.03,WUHU216DAVISVP2,2013-09-30 13:10:00,
2013-09-30 09:15:00,61.2,60.0,30.04,South,183,2.0,6.0,96,0.00,,,0.03,WUHU216DAVISVP2,2013-09-30 13:15:00,
2013-09-30 09:20:00,61.2,60.0,30.04,SW,215,0.0,6.0,96,0.00,,,0.03,WUHU216DAVISVP2,2013-09-30 13:20:00,
2013-09-30 09:25:00,61.2,60.0,30.04,SSE,167,0.0,4.0,96,0.00,,,0.03,WUHU216DAVISVP2,2013-09-30 13:25:00,
2013-09-30 09:30:00,61.2,60.0,30.04,SSW,210,2.0,8.0,96,0.00,,,0.03,WUHU216DAVISVP2,2013-09-30 13:30:00,
2013-09-30 09:35:00,61.3,60.1,30.04,SSW,213,0.0,8.0,96,0.00,,,0.03,WUHU216DAVISVP2,2013-09-30 13:35:00,
2013-09-30 09:40:00,61.3,60.1,30.04,WNW,292,0.0,10.0,96,0.00,,,0.03,WUHU216DAVISVP2,2013-09-30 13:40:00,
2013-09-30 09:45:00,61.4,60.2,30.04,SW,229,0.0,10.0,96,0.00,,,0.03,WUHU216DAVISVP2,2013-09-30 13:45:00,
2013-09-30 09:50:00,61.4,60.2,30.04,SW,232,0.0,10.0,96,0.00,,,0.03,WUHU216DAVISVP2,2013-09-30 13:50:00,
2013-09-30 09:55:00,61.5,60.3,30.04,WNW,298,0.0,10.0,96,0.00,,,0.03,WUHU216DAVISVP2,2013-09-30 13:55:00,
2013-09-30 10:00:00,61.5,60.3,30.04,SW,236,0.0,8.0,96,0.00,,,0.03,WUHU216DAVISVP2,2013-09-30 14:00:00,
2013-09-30 10:05:00,61.5,60.3,30.04,South,173,0.0,8.0,96,0.00,,,0.03,WUHU216DAVISVP2,2013-09-30 14:05:00,
2013-09-30 10:10:00,61.7,60.5,30.04,SE,125,0.0,8.0,96,0.00,,,0.03,WUHU216DAVISVP2,2013-09-30 14:10:00,
2013-09-30 10:15:00,61.7,60.5,30.04,SW,232,0.0,8.0,96,0.00,,,0.03,WUHU216DAVISVP2,2013-09-30 14:15:00,
2013-09-30 10:20:00,61.8,60.6,30.04,West,271,0.0,8.0,96,0.00,,,0.03,WUHU216DAVISVP2,2013-09-30 14:20:00,
2013-09-30 10:25:00,61.9,60.7,30.04,SW,235,2.0,8.0,96,0.00,,,0.03,WUHU216DAVISVP2,2013-09-30 14:25:00,
2013-09-30 10:30:00,62.0,60.8,30.04,SSW,194,4.0,8.0,96,0.00,,,0.03,WUHU216DAVISVP2,2013-09-30 14:30:00,
2013-09-30 10:35:00,62.0,60.5,30.04,South,169,4.0,8.0,95,0.00,,,0.03,WUHU216DAVISVP2,2013-09-30 14:35:00,
2013-09-30 10:40:00,62.1,60.6,30.04,SSW,196,4.0,8.0,95,0.00,,,0.03,WUHU216DAVISVP2,2013-09-30 14:40:00,
2013-09-30 10:45:00,62.3,60.8,30.04,SSW,213,4.0,8.0,95,0.00,,,0.03,WUHU216DAVISVP2,2013-09-30 14:45:00,
2013-09-30 10:50:00,62.5,61.0,30.04,SSW,196,0.0,6.0,95,0.00,,,0.03,WUHU216DAVISVP2,2013-09-30 14:50:00,
2013-09-30 10:55:00,62.7,61.2,30.04,WNW,284,0.0,6.0,95,0.00,,,0.03,WUHU216DAVISVP2,2013-09-30 14:55:00,
2013-09-30 11:00:00,62.8,61.3,30.04,SSW,201,2.0,6.0,95,0.00,,,0.03,WUHU216DAVISVP2,2013-09-30 15:00:00,
2013-09-30 11:05:00,62.9,61.1,30.04,SSE,157,0.0,12.0,94,0.00,,,0.03,WUHU216DAVISVP2,2013-09-30 15:05:00,
2013-09-30 11:10:00,63.0,61.2,30.04,SSE,150,4.0,12.0,94,0.00,,,0.03,WUHU216DAVISVP2,2013-09-30 15:10:00,
2013-09-30 11:15:00,63.0,60.9,30.04,WSW,243,4.0,8.0,93,0.00,,,0.03,WUHU216DAVISVP2,2013-09-30 15:15:00,
2013-09-30 11:20:00,63.1,61.0,30.04,South,188,2.0,14.0,93,0.00,,,0.03,WUHU216DAVISVP2,2013-09-30 15:20:00,
2013-09-30 11:26:00,63.1,61.0,30.04,West,260,4.0,14.0,93,0.00,,,0.03,WUHU216DAVISVP2,2013-09-30 15:26:00,
2013-09-30 11:31:00,63.1,61.0,30.04,WNW,291,0.0,10.0,93,0.00,,,0.03,WUHU216DAVISVP2,2013-09-30 15:31:00,
2013-09-30 11:36:00,63.0,60.9,30.04,WNW,289,2.0,10.0,93,0.00,,,0.03,WUHU216DAVISVP2,2013-09-30 15:36:00,
2013-09-30 11:41:00,62.9,60.8,30.04,NW,311,0.0,8.0,93,0.00,,,0.03,WUHU216DAVISVP2,2013-09-30 15:41:00,
2013-09-30 11:46:00,62.8,60.7,30.04,South,186,2.0,8.0,93,0.00,,,0.03,WUHU216DAVISVP2,2013-09-30 15:46:00,
2013-09-30 11:51:00,62.8,60.7,30.04,South,180,0.0,8.0,93,0.00,,,0.03,WUHU216DAVISVP2,2013-09-30 15:51:00,
2013-09-30 11:56:00,62.9,60.8,30.04,SSW,213,4.0,8.0,93,0.00,,,0.03,WUHU216DAVISVP2,2013-09-30 15:56:00,
2013-09-30 12:01:00,63.1,61.3,30.04,WNW,298,0.0,8.0,94,0.00,,,0.03,WUHU216DAVISVP2,2013-09-30 16:01:00,
2013-09-30 12:06:00,63.3,61.2,30.04,West,263,0.0,10.0,93,0.00,,,0.03,WUHU216DAVISVP2,2013-09-30 16:06:00,
2013-09-30 12:11:00,63.6,61.5,30.04,SSE,165,2.0,10.0,93,0.00,,,0.03,WUHU216DAVISVP2,2013-09-30 16:11:00,
2013-09-30 12:16:00,63.9,61.5,30.04,South,190,0.0,8.0,92,0.00,,,0.03,WUHU216DAVISVP2,2013-09-30 16:16:00,
2013-09-30 12:21:00,64.2,61.8,30.04,South,188,0.0,6.0,92,0.00,,,0.03,WUHU216DAVISVP2,2013-09-30 16:21:00,
2013-09-30 12:26:00,64.4,61.7,30.04,SSW,202,2.0,8.0,91,0.00,,,0.03,WUHU216DAVISVP2,2013-09-30 16:26:00,
2013-09-30 12:31:00,64.5,61.8,30.04,SSE,164,4.0,8.0,91,0.00,,,0.03,WUHU216DAVISVP2,2013-09-30 16:31:00,
2013-09-30 12:36:00,64.5,61.5,30.04,SSW,192,0.0,6.0,90,0.00,,,0.03,WUHU216DAVISVP2,2013-09-30 16:36:00,
2013-09-30 12:41:00,64.5,61.5,30.04,SSW,196,4.0,10.0,90,0.00,,,0.03,WUHU216DAVISVP2,2013-09-30 16:41:00,
2013-09-30 12:46:00,64.4,61.4,30.04,SSW,194,0.0,10.0,90,0.00,,,0.03,WUHU216DAVISVP2,2013-09-30 16:46:00,
2013-09-30 12:51:00,64.3,61.3,30.04,ESE,109,0.0,6.0,90,0.00,,,0.03,WUHU216DAVISVP2,2013-09-30 16:51:00,
2013-09-30 12:56:00,64.2,61.5,30.04,SSW,204,0.0,6.0,91,0.00,,,0.03,WUHU216DAVISVP2,2013-09-30 16:56:00,
2013-09-30 13:01:00,64.2,61.5,30.04,WSW,246,0.0,10.0,91,0.00,,,0.03,WUHU216DAVISVP2,2013-09-30 17:01:00,
2013-09-30 13:06:00,64.3,61.3,30.04,South,178,6.0,10.0,90,0.00,,,0.03,WUHU216DAVISVP2,2013-09-30 17:06:00,
2013-09-30 13:11:00,64.3,61.3,30.04,SW,231,0.0,10.0,90,0.00,,,0.03,WUHU216DAVISVP2,2013-09-30 17:11:00,
2013-09-30 13:16:00,64.3,61.6,30.04,South,180,6.0,10.0,91,0.00,,,0.03,WUHU216DAVISVP2,2013-09-30 17:16:00,
2013-09-30 13:21:00,64.1,61.4,30.04,SSE,167,0.0,10.0,91,0.00,,,0.03,WUHU216DAVISVP2,2013-09-30 17:21:00,
2013-09-30 13:26:00,64.0,61.3,30.03,SW,219,0.0,10.0,91,0.00,,,0.03,WUHU216DAVISVP2,2013-09-30 17:26:00,
2013-09-30 13:31:00,63.9,61.5,30.03,SW,219,0.0,4.0,92,0.00,,,0.03,WUHU216DAVISVP2,2013-09-30 17:31:00,
2013-09-30 13:36:00,63.9,61.5,30.03,SW,219,0.0,0.0,92,0.00,,,0.03,WUHU216DAVISVP2,2013-09-30 17:36:00,
2013-09-30 13:41:00,63.8,61.1,30.03,SW,219,0.0,4.0,91,0.00,,,0.03,WUHU216DAVISVP2,2013-09-30 17:41:00,
2013-09-30 13:46:00,63.8,61.1,30.03,SW,219,0.0,4.0,91,0.00,,,0.03,WUHU216DAVISVP2,2013-09-30 17:46:00,
2013-09-30 13:51:00,63.9,61.2,30.02,SW,215,0.0,6.0,91,0.00,,,0.03,WUHU216DAVISVP2,2013-09-30 17:51:00,
2013-09-30 13:56:00,63.9,61.2,30.03,NNW,336,0.0,8.0,91,0.00,,,0.03,WUHU216DAVISVP2,2013-09-30 17:56:00,
2013-09-30 14:01:00,63.5,60.8,30.02,NNW,336,0.0,8.0,91,0.00,,,0.03,WUHU216DAVISVP2,2013-09-30 18:01:00,
2013-09-30 14:06:00,63.0,60.6,30.02,NNW,336,0.0,2.0,92,0.00,,,0.03,WUHU216DAVISVP2,2013-09-30 18:06:00,
2013-09-30 14:11:00,62.5,60.4,30.02,NNW,336,0.0,2.0,93,0.01,,,0.04,WUHU216DAVISVP2,2013-09-30 18:11:00,
2013-09-30 14:16:00,62.1,60.3,30.02,NNW,329,0.0,2.0,94,0.01,,,0.04,WUHU216DAVISVP2,2013-09-30 18:16:00,
2013-09-30 14:21:00,61.9,60.1,30.02,NNW,329,0.0,2.0,94,0.01,,,0.04,WUHU216DAVISVP2,2013-09-30 18:21:00,
2013-09-30 14:26:00,61.8,60.3,30.02,NNW,329,0.0,0.0,95,0.01,,,0.04,WUHU216DAVISVP2,2013-09-30 18:26:00,
2013-09-30 14:31:00,61.8,60.3,30.02,NNW,329,0.0,0.0,95,0.01,,,0.05,WUHU216DAVISVP2,2013-09-30 18:31:00,
2013-09-30 14:36:00,61.8,60.3,30.02,NNW,329,0.0,0.0,95,0.02,,,0.05,WUHU216DAVISVP2,2013-09-30 18:36:00,
2013-09-30 14:41:00,61.7,60.2,30.02,NNW,329,0.0,0.0,95,0.02,,,0.05,WUHU216DAVISVP2,2013-09-30 18:41:00,
2013-09-30 14:46:00,61.6,60.1,30.02,NNW,329,0.0,0.0,95,0.02,,,0.05,WUHU216DAVISVP2,2013-09-30 18:46:00,
2013-09-30 14:51:00,61.6,60.1,30.02,NNW,329,0.0,0.0,95,0.02,,,0.05,WUHU216DAVISVP2,2013-09-30 18:51:00,
2013-09-30 14:56:00,61.6,60.4,30.02,NNW,329,0.0,0.0,96,0.02,,,0.05,WUHU216DAVISVP2,2013-09-30 18:56:00,
2013-09-30 15:01:00,61.6,60.4,30.02,NNW,329,0.0,0.0,96,0.02,,,0.05,WUHU216DAVISVP2,2013-09-30 19:01:00,
2013-09-30 15:06:00,61.6,60.4,30.02,NNW,329,0.0,0.0,96,0.02,,,0.05,WUHU216DAVISVP2,2013-09-30 19:06:00,
2013-09-30 15:11:00,61.7,60.5,30.02,NNW,329,0.0,0.0,96,0.01,,,0.05,WUHU216DAVISVP2,2013-09-30 19:11:00,
2013-09-30 15:16:00,61.7,60.5,30.02,NNW,329,0.0,0.0,96,0.01,,,0.05,WUHU216DAVISVP2,2013-09-30 19:16:00,
2013-09-30 15:21:00,61.8,60.6,30.02,NNW,329,0.0,0.0,96,0.01,,,0.05,WUHU216DAVISVP2,2013-09-30 19:21:00,
2013-09-30 15:26:00,61.8,60.6,30.02,NNW,329,0.0,0.0,96,0.01,,,0.05,WUHU216DAVISVP2,2013-09-30 19:26:00,
2013-09-30 15:31:00,61.9,60.7,30.01,NNW,329,0.0,0.0,96,0.00,,,0.05,WUHU216DAVISVP2,2013-09-30 19:31:00,
2013-09-30 15:36:00,62.1,61.2,30.01,NNW,329,0.0,0.0,97,0.00,,,0.05,WUHU216DAVISVP2,2013-09-30 19:36:00,
2013-09-30 15:41:00,62.3,61.4,30.01,NNW,329,0.0,0.0,97,0.00,,,0.05,WUHU216DAVISVP2,2013-09-30 19:41:00,
2013-09-30 15:46:00,62.5,61.3,30.01,NNW,329,0.0,0.0,96,0.00,,,0.05,WUHU216DAVISVP2,2013-09-30 19:46:00,
2013-09-30 15:51:00,62.6,61.7,30.01,NNW,329,0.0,0.0,97,0.00,,,0.05,WUHU216DAVISVP2,2013-09-30 19:51:00,
2013-09-30 15:56:00,62.9,62.0,30.01,NNW,329,0.0,0.0,97,0.00,,,0.05,WUHU216DAVISVP2,2013-09-30 19:56:00,
2013-09-30 16:01:00,63.0,62.1,30.01,NNW,329,0.0,0.0,97,0.00,,,0.05,WUHU216DAVISVP2,2013-09-30 20:01:00,
2013-09-30 16:06:00,62.8,61.6,30.01,NNW,329,0.0,0.0,96,0.00,,,0.05,WUHU216DAVISVP2,2013-09-30 20:06:00,
2013-09-30 16:11:00,62.7,61.5,30.01,NNW,329,0.0,0.0,96,0.00,,,0.05,WUHU216DAVISVP2,2013-09-30 20:11:00,
2013-09-30 16:16:00,62.8,61.6,30.01,NNW,329,0.0,2.0,96,0.00,,,0.05,WUHU216DAVISVP2,2013-09-30 20:16:00,
2013-09-30 16:21:00,62.9,61.7,30.00,NNW,329,0.0,2.0,96,0.00,,,0.05,WUHU216DAVISVP2,2013-09-30 20:21:00,
2013-09-30 16:26:00,63.0,61.8,30.00,NNW,329,0.0,0.0,96,0.00,,,0.05,WUHU216DAVISVP2,2013-09-30 20:26:00,
2013-09-30 16:31:00,62.9,61.7,30.00,NNW,329,0.0,0.0,96,0.00,,,0.05,WUHU216DAVISVP2,2013-09-30 20:31:00,
2013-09-30 16:36:00,63.0,61.8,30.00,NNW,329,0.0,0.0,96,0.00,,,0.05,WUHU216DAVISVP2,2013-09-30 20:36:00,
2013-09-30 16:41:00,63.0,61.8,30.00,NNW,329,0.0,0.0,96,0.00,,,0.05,WUHU216DAVISVP2,2013-09-30 20:41:00,
2013-09-30 16:46:00,63.0,61.8,30.00,NNW,340,0.0,2.0,96,0.00,,,0.05,WUHU216DAVISVP2,2013-09-30 20:46:00,
2013-09-30 16:51:00,63.0,61.8,30.00,NNW,340,0.0,2.0,96,0.00,,,0.05,WUHU216DAVISVP2,2013-09-30 20:51:00,
2013-09-30 16:56:00,63.0,61.8,29.99,NNW,340,0.0,0.0,96,0.00,,,0.05,WUHU216DAVISVP2,2013-09-30 20:56:00,
2013-09-30 17:01:00,63.0,61.8,29.99,NNW,340,0.0,0.0,96,0.00,,,0.05,WUHU216DAVISVP2,2013-09-30 21:01:00,
2013-09-30 17:06:00,63.1,61.9,29.99,NNW,340,0.0,0.0,96,0.00,,,0.05,WUHU216DAVISVP2,2013-09-30 21:06:00,
2013-09-30 17:11:00,63.0,61.8,29.99,South,169,2.0,4.0,96,0.00,,,0.05,WUHU216DAVISVP2,2013-09-30 21:11:00,
2013-09-30 17:16:00,63.0,61.8,29.99,South,182,0.0,4.0,96,0.00,,,0.05,WUHU216DAVISVP2,2013-09-30 21:16:00,
2013-09-30 17:21:00,63.0,61.8,29.99,South,182,0.0,4.0,96,0.00,,,0.05,WUHU216DAVISVP2,2013-09-30 21:21:00,
2013-09-30 17:26:00,63.0,61.8,29.99,South,182,0.0,0.0,96,0.00,,,0.05,WUHU216DAVISVP2,2013-09-30 21:26:00,
2013-09-30 17:31:00,63.1,61.9,29.99,South,182,0.0,0.0,96,0.00,,,0.05,WUHU216DAVISVP2,2013-09-30 21:31:00,
2013-09-30 17:36:00,63.1,61.9,29.99,South,182,0.0,0.0,96,0.00,,,0.05,WUHU216DAVISVP2,2013-09-30 21:36:00,
2013-09-30 17:41:00,63.1,61.9,30.00,South,182,0.0,0.0,96,0.00,,,0.05,WUHU216DAVISVP2,2013-09-30 21:41:00,
2013-09-30 17:46:00,63.1,61.9,30.00,South,182,0.0,0.0,96,0.00,,,0.05,WUHU216DAVISVP2,2013-09-30 21:46:00,
2013-09-30 17:51:00,63.2,62.0,30.00,South,182,0.0,0.0,96,0.00,,,0.05,WUHU216DAVISVP2,2013-09-30 21:51:00,
2013-09-30 17:56:00,63.2,62.0,30.00,South,182,0.0,4.0,96,0.00,,,0.05,WUHU216DAVISVP2,2013-09-30 21:56:00,
2013-09-30 18:01:00,63.2,61.7,30.00,SW,215,2.0,6.0,95,0.00,,,0.05,WUHU216DAVISVP2,2013-09-30 22:01:00,
2013-09-30 18:06:00,63.2,61.4,30.00,SSW,198,0.0,6.0,94,0.00,,,0.05,WUHU216DAVISVP2,2013-09-30 22:06:00,
2013-09-30 18:11:00,63.1,61.3,30.00,SSW,198,0.0,4.0,94,0.00,,,0.05,WUHU216DAVISVP2,2013-09-30 22:11:00,
2013-09-30 18:16:00,63.1,61.0,30.00,South,175,0.0,8.0,93,0.00,,,0.05,WUHU216DAVISVP2,2013-09-30 22:16:00,
2013-09-30 18:21:00,63.2,61.1,30.00,South,179,0.0,8.0,93,0.00,,,0.05,WUHU216DAVISVP2,2013-09-30 22:21:00,
2013-09-30 18:26:00,63.1,61.0,30.01,South,186,0.0,8.0,93,0.00,,,0.05,WUHU216DAVISVP2,2013-09-30 22:26:00,
2013-09-30 18:31:00,63.1,61.0,30.01,SSW,200,2.0,4.0,93,0.00,,,0.05,WUHU216DAVISVP2,2013-09-30 22:31:00,
2013-09-30 18:36:00,63.0,60.9,30.01,SSE,167,4.0,6.0,93,0.00,,,0.05,WUHU216DAVISVP2,2013-09-30 22:36:00,
2013-09-30 18:41:00,62.9,60.5,30.01,SSE,163,0.0,6.0,92,0.00,,,0.05,WUHU216DAVISVP2,2013-09-30 22:41:00,
2013-09-30 18:46:00,62.9,60.5,30.01,SSE,163,0.0,6.0,92,0.00,,,0.05,WUHU216DAVISVP2,2013-09-30 22:46:00,
2013-09-30 18:51:00,62.7,60.3,30.01,South,173,0.0,6.0,92,0.00,,,0.05,WUHU216DAVISVP2,2013-09-30 22:51:00,
2013-09-30 18:56:00,62.6,60.2,30.01,SW,215,0.0,6.0,92,0.00,,,0.05,WUHU216DAVISVP2,2013-09-30 22:56:00,
2013-09-30 19:01:00,62.4,60.3,30.01,SSE,166,0.0,6.0,93,0.00,,,0.05,WUHU216DAVISVP2,2013-09-30 23:01:00,
2013-09-30 19:06:00,62.2,59.8,30.01,SSE,166,0.0,6.0,92,0.00,,,0.05,WUHU216DAVISVP2,2013-09-30 23:06:00,
2013-09-30 19:11:00,62.1,60.0,30.01,SSE,166,0.0,0.0,93,0.00,,,0.05,WUHU216DAVISVP2,2013-09-30 23:11:00,
2013-09-30 19:16:00,61.8,59.7,30.01,SSE,166,0.0,4.0,93,0.00,,,0.05,WUHU216DAVISVP2,2013-09-30 23:16:00,
2013-09-30 19:21:00,61.6,59.5,30.01,SSE,166,0.0,4.0,93,0.00,,,0.05,WUHU216DAVISVP2,2013-09-30 23:21:00,
2013-09-30 19:26:00,61.3,59.2,30.02,SSE,166,0.0,4.0,93,0.00,,,0.05,WUHU216DAVISVP2,2013-09-30 23:26:00,
2013-09-30 19:31:00,61.1,59.0,30.02,SSE,167,2.0,2.0,93,0.00,,,0.05,WUHU216DAVISVP2,2013-09-30 23:31:00,
2013-09-30 19:36:00,60.8,59.0,30.02,SSE,167,0.0,4.0,94,0.00,,,0.05,WUHU216DAVISVP2,2013-09-30 23:36:00,
2013-09-30 19:41:00,60.6,58.8,30.02,SSE,167,0.0,4.0,94,0.00,,,0.05,WUHU216DAVISVP2,2013-09-30 23:41:00,
2013-09-30 19:46:00,60.4,58.6,30.02,SSE,167,0.0,2.0,94,0.00,,,0.05,WUHU216DAVISVP2,2013-09-30 23:46:00,
2013-09-30 19:51:00,60.2,58.4,30.02,SSE,167,0.0,2.0,94,0.00,,,0.05,WUHU216DAVISVP2,2013-09-30 23:51:00,
2013-09-30 19:56:00,59.9,58.1,30.02,SSE,167,0.0,0.0,94,0.00,,,0.05,WUHU216DAVISVP2,2013-09-30 23:56:00,
2013-09-30 20:01:00,59.7,57.9,30.02,SSE,167,0.0,0.0,94,0.00,,,0.05,WUHU216DAVISVP2,2013-10-01 00:01:00,
2013-09-30 20:06:00,59.5,58.0,30.02,SSE,167,0.0,0.0,95,0.00,,,0.05,WUHU216DAVISVP2,2013-10-01 00:06:00,
2013-09-30 20:11:00,59.3,57.8,30.02,SSE,167,0.0,0.0,95,0.00,,,0.05,WUHU216DAVISVP2,2013-10-01 00:11:00,
2013-09-30 20:16:00,59.1,57.6,30.02,SSW,205,0.0,6.0,95,0.00,,,0.05,WUHU216DAVISVP2,2013-10-01 00:16:00,
2013-09-30 20:21:00,59.2,58.0,30.02,South,173,0.0,8.0,96,0.00,,,0.05,WUHU216DAVISVP2,2013-10-01 00:21:00,
2013-09-30 20:26:00,59.3,58.1,30.02,South,179,2.0,8.0,96,0.00,,,0.05,WUHU216DAVISVP2,2013-10-01 00:26:00,
2013-09-30 20:31:00,59.4,58.2,30.02,SSW,194,0.0,6.0,96,0.00,,,0.05,WUHU216DAVISVP2,2013-10-01 00:31:00,
2013-09-30 20:36:00,59.5,58.3,30.02,South,191,2.0,6.0,96,0.00,,,0.05,WUHU216DAVISVP2,2013-10-01 00:36:00,
2013-09-30 20:41:00,59.4,58.2,30.03,SSW,196,0.0,6.0,96,0.00,,,0.05,WUHU216DAVISVP2,2013-10-01 00:41:00,
2013-09-30 20:46:00,59.4,58.2,30.03,South,175,0.0,8.0,96,0.00,,,0.05,WUHU216DAVISVP2,2013-10-01 00:46:00,
2013-09-30 20:51:00,59.4,58.2,30.03,SSE,168,0.0,8.0,96,0.00,,,0.05,WUHU216DAVISVP2,2013-10-01 00:51:00,
2013-09-30 20:56:00,59.4,58.2,30.03,South,185,2.0,8.0,96,0.00,,,0.05,WUHU216DAVISVP2,2013-10-01 00:56:00,
2013-09-30 21:01:00,59.4,58.2,30.03,South,191,0.0,8.0,96,0.00,,,0.05,WUHU216DAVISVP2,2013-10-01 01:01:00,
2013-09-30 21:06:00,59.4,58.2,30.03,South,172,0.0,8.0,96,0.00,,,0.05,WUHU216DAVISVP2,2013-10-01 01:06:00,
2013-09-30 21:11:00,59.4,58.2,30.03,SSW,198,2.0,8.0,96,0.00,,,0.05,WUHU216DAVISVP2,2013-10-01 01:11:00,
2013-09-30 21:16:00,59.4,58.2,30.03,SSW,198,0.0,6.0,96,0.00,,,0.05,WUHU216DAVISVP2,2013-10-01 01:16:00,
2013-09-30 21:21:00,59.3,58.1,30.02,SSE,168,0.0,6.0,96,0.00,,,0.05,WUHU216DAVISVP2,2013-10-01 01:21:00,
2013-09-30 21:26:00,59.3,58.1,30.03,SSE,168,0.0,6.0,96,0.00,,,0.05,WUHU216DAVISVP2,2013-10-01 01:26:00,
2013-09-30 21:31:00,59.3,58.1,30.02,SSE,149,0.0,10.0,96,0.00,,,0.05,WUHU216DAVISVP2,2013-10-01 01:31:00,
2013-09-30 21:36:00,59.3,58.1,30.02,SE,145,0.0,10.0,96,0.00,,,0.05,WUHU216DAVISVP2,2013-10-01 01:36:00,
2013-09-30 21:41:00,59.3,58.1,30.02,South,179,6.0,8.0,96,0.00,,,0.05,WUHU216DAVISVP2,2013-10-01 01:41:00,
2013-09-30 21:46:00,59.4,58.2,30.02,SSW,200,4.0,10.0,96,0.00,,,0.05,WUHU216DAVISVP2,2013-10-01 01:46:00,
2013-09-30 21:51:00,59.5,58.3,30.02,South,191,6.0,12.0,96,0.00,,,0.05,WUHU216DAVISVP2,2013-10-01 01:51:00,
2013-09-30 21:56:00,59.5,58.3,30.02,SE,126,2.0,12.0,96,0.00,,,0.05,WUHU216DAVISVP2,2013-10-01 01:56:00,
2013-09-30 22:01:00,59.6,58.4,30.03,South,190,8.0,12.0,96,0.00,,,0.05,WUHU216DAVISVP2,2013-10-01 02:01:00,
2013-09-30 22:06:00,59.7,58.5,30.02,SE,144,2.0,12.0,96,0.00,,,0.05,WUHU216DAVISVP2,2013-10-01 02:06:00,
2013-09-30 22:11:00,59.6,58.4,30.02,SSE,155,0.0,12.0,96,0.00,,,0.05,WUHU216DAVISVP2,2013-10-01 02:11:00,
2013-09-30 22:16:00,59.6,58.4,30.02,South,189,6.0,12.0,96,0.00,,,0.05,WUHU216DAVISVP2,2013-10-01 02:16:00,
2013-09-30 22:21:00,59.6,58.4,30.02,SSW,198,8.0,12.0,96,0.00,,,0.05,WUHU216DAVISVP2,2013-10-01 02:21:00,
2013-09-30 22:26:00,59.6,58.4,30.02,South,175,0.0,10.0,96,0.00,,,0.05,WUHU216DAVISVP2,2013-10-01 02:26:00,
2013-09-30 22:31:00,59.6,58.1,30.03,South,173,0.0,8.0,95,0.00,,,0.05,WUHU216DAVISVP2,2013-10-01 02:31:00,
2013-09-30 22:36:00,59.5,58.3,30.03,SSE,167,0.0,10.0,96,0.00,,,0.05,WUHU216DAVISVP2,2013-10-01 02:36:00,
2013-09-30 22:41:00,59.5,58.3,30.03,SSE,167,0.0,12.0,96,0.00,,,0.05,WUHU216DAVISVP2,2013-10-01 02:41:00,
2013-09-30 22:46:00,59.5,58.3,30.03,SSE,162,6.0,12.0,96,0.00,,,0.05,WUHU216DAVISVP2,2013-10-01 02:46:00,
2013-09-30 22:51:00,59.4,58.2,30.03,South,184,0.0,10.0,96,0.00,,,0.05,WUHU216DAVISVP2,2013-10-01 02:51:00,
2013-09-30 22:56:00,59.5,58.3,30.02,South,172,2.0,10.0,96,0.00,,,0.05,WUHU216DAVISVP2,2013-10-01 02:56:00,
2013-09-30 23:01:00,59.5,58.3,30.02,South,172,0.0,16.0,96,0.00,,,0.05,WUHU216DAVISVP2,2013-10-01 03:01:00,
2013-09-30 23:06:00,59.6,58.4,30.02,South,191,6.0,16.0,96,0.00,,,0.05,WUHU216DAVISVP2,2013-10-01 03:06:00,
2013-09-30 23:11:00,59.6,58.4,30.02,SSW,209,0.0,12.0,96,0.00,,,0.05,WUHU216DAVISVP2,2013-10-01 03:11:00,
2013-09-30 23:17:00,59.7,58.5,30.02,South,169,2.0,10.0,96,0.00,,,0.05,WUHU216DAVISVP2,2013-10-01 03:17:00,
2013-09-30 23:22:00,59.7,58.5,30.02,South,176,4.0,8.0,96,0.00,,,0.05,WUHU216DAVISVP2,2013-10-01 03:22:00,
2013-09-30 23:27:00,59.7,58.5,30.02,SE,143,2.0,14.0,96,0.00,,,0.05,WUHU216DAVISVP2,2013-10-01 03:27:00,
2013-09-30 23:32:00,59.7,58.5,30.02,SSW,199,0.0,14.0,96,0.00,,,0.05,WUHU216DAVISVP2,2013-10-01 03:32:00,
2013-09-30 23:37:00,59.7,58.5,30.02,South,182,2.0,10.0,96,0.00,,,0.05,WUHU216DAVISVP2,2013-10-01 03:37:00,
2013-09-30 23:42:00,59.7,58.5,30.02,SSW,199,4.0,14.0,96,0.00,,,0.05,WUHU216DAVISVP2,2013-10-01 03:42:00,
2013-09-30 23:47:00,59.6,58.1,30.02,ESE,118,10.0,14.0,95,0.00,,,0.05,WUHU216DAVISVP2,2013-10-01 03:47:00,
2013-09-30 23:52:00,59.6,58.1,30.02,SE,131,2.0,14.0,95,0.00,,,0.05,WUHU216DAVISVP2,2013-10-01 03:52:00,
2013-09-30 23:57:00,59.5,58.0,30.02,SSW,202,0.0,14.0,95,0.00,,,0.05,WUHU216DAVISVP2,2013-10-01 03:57:00,